Vorticity
6 9 9 2 5 1 3 -2 -4 -9 16 -1 4 6 2 8 6 -2 -9 -2 19 18 7 17 11 14 0 19 1 22 10 10 5 6 5 5 5 5 9 5 4 5 5 6 5 4 3 3 4
10 8 5 4 3 3 -4 -13 3 12 10 2 7 8 17 6 13 5 15 11 6 2 1 5 9 19 19 13 11 9 -3 3 7 6 5 6 6 8 9 6 5 6 6 6 2 2 3 4 5
10 7 4 5 4 -5 -10 4 21 9 7 7 2 12 3 -0 13 28 2 1 10 15 16 11 -2 -4 26 9 7 9 3 3 5 4 4 5 8 8 5 5 6 6 3 2 3 3 5 7 8
9 8 2 1 -1 6 7 21 12 10 3 2 3 14 7 8 -9 34 26 11 9 12 0 7 -4 6 -8 -4 9 2 4 2 3 4 4 6 9 7 4 5 8 6 4 3 3 4 5 2 2
10 5 6 -4 6 4 16 9 11 7 5 1 -5 -8 4 4 16 4 33 -3 12 2 5 13 13 -25 50 -12 -34 20 5 1 3 2 4 9 9 8 8 6 6 4 4 4 3 3 3 4 4
14 -1 2 5 -0 9 7 -3 6 5 4 3 0 9 14 13 2 34 11 12 5 7 5 8 8 9 25 -10 24 5 -0 2 3 4 5 11 10 7 7 6 4 3 4 3 3 4 4 4 4
16 2 6 -3 -5 12 15 6 -2 5 9 -1 1 4 9 9 6 9 32 11 13 11 16 8 3 27 13 12 34 36 19 9 2 3 7 10 8 6 7 5 5 3 3 3 3 3 4 4 2
-3 6 15 3 -2 -4 -3 13 -10 4 6 8 11 4 -2 7 19 -10 1 7 9 -1 6 19 26 16 29 18 20 -1 26 -8 7 2 9 12 7 5 4 5 5 4 4 3 3 2 3 3 3
1 -0 5 5 -12 6 4 10 -2 13 4 -6 1 17 2 15 8 21 -2 6 8 5 8 4 10 -8 16 -1 3 28 -32 1 10 3 12 10 5 4 4 4 5 5 3 2 -0 5 2 5 5
-3 5 6 -13 2 21 8 12 -3 1 -2 1 -1 2 11 1 14 16 13 7 11 10 19 8 -4 62 30 8 4 10 18 13 3 3 10 6 5 5 2 5 3 3 1 2 4 4 5 4 3
3 3 -13 7 -4 24 20 12 5 -1 10 4 4 0 20 11 -1 8 16 8 3 14 3 3 -15 77 90 14 -16 -6 7 6 3 6 10 7 4 2 4 3 2 -0 1 5 7 2 2 4 2
5 -6 -1 15 1 8 10 -5 -6 4 3 3 5 13 -0 -2 13 5 14 9 15 12 19 10 -9 71 57 51 -6 43 17 4 2 7 10 5 2 7 5 -0 2 5 -0 2 2 1 4 4 1
-6 5 -10 7 0 4 2 5 1 6 6 4 7 4 11 7 2 6 23 16 8 12 14 14 -6 27 12 54 47 21 7 1 2 10 10 6 6 3 -5 2 -3 4 -2 2 6 3 2 4 2
-4 -3 -1 5 -1 1 -4 9 -1 24 16 9 9 18 -0 6 0 50 14 19 11 16 6 10 4 -4 16 27 25 7 -2 3 -1 8 9 6 7 1 -21 20 7 1 4 7 3 1 6 4 3
4 11 12 32 19 22 7 9 15 12 9 6 15 9 3 5 5 37 11 12 24 -2 11 11 11 9 10 -6 18 15 7 3 22 2 -1 5 3 -2 -12 0 2 -10 6 5 1 3 6 4 6
-1 6 2 9 -0 5 19 0 -2 13 4 6 11 15 6 4 4 23 20 2 15 10 14 8 8 11 18 6 7 -2 7 5 11 -8 2 6 8 -3 20 4 4 -8 9 3 3 5 4 5 8
21 -3 5 -9 6 18 12 5 7 -0 3 10 10 6 4 4 5 27 13 9 12 19 12 -1 12 9 7 25 30 3 13 6 3 -9 14 19 1 10 8 5 7 -2 4 3 3 4 2 6 8
23 11 2 6 0 -4 11 16 5 7 1 8 3 11 2 6 16 10 28 16 6 11 28 -2 7 3 -2 1 2 13 -14 22 -1 0 17 16 -13 10 21 5 1 9 4 1 5 3 3 7 7
-19 -18 -16 8 4 -11 30 1 25 5 10 18 17 6 3 6 11 9 18 56 -4 6 14 35 -1 -23 24 31 -2 1 12 -1 30 12 14 -11 10 7 4 -1 5 3 2 1 7 1 3 4 8
-0 3 15 -6 4 -3 28 -22 10 18 6 9 3 1 2 7 7 8 10 18 53 5 6 11 18 11 -10 14 -5 8 12 41 6 20 11 22 39 12 7 1 3 0 2 1 6 3 3 3 4
10 7 5 0 -11 22 22 15 -2 2 9 7 8 2 5 3 7 8 5 11 6 17 27 27 32 30 40 13 20 16 19 8 20 13 25 7 19 6 1 4 -4 4 3 8 5 2 3 4 3
8 13 -3 -2 12 -3 2 1 -3 14 16 20 19 5 6 7 7 7 6 5 10 10 8 8 7 12 23 25 20 21 15 12 19 18 8 9 12 12 10 3 -0 8 3 -2 2 3 3 8 4
23 -2 -1 -2 6 13 12 16 20 -14 -7 7 3 18 3 6 -0 6 5 4 4 8 7 7 7 6 8 8 15 15 17 19 19 13 10 13 13 11 4 6 7 7 10 10 7 4 -1 4 7
-6 -9 -2 19 21 22 6 -1 25 33 24 18 14 20 16 9 4 3 5 4 5 3 6 9 8 4 7 5 5 6 5 5 5 5 6 10 1 1 5 -2 -2 3 3 -0 4 5 6 -4 -1
15 12 19 37 20 -2 19 19 -21 -5 1 13 11 11 19 8 5 8 10 9 12 5 4 5 6 8 7 6 7 5 4 5 7 5 6 5 7 6 6 7 10 8 10 6 5 6 9 7 -1
16 -5 -46 10 8 -1 27 11 6 31 4 18 9 14 1 10 3 7 -1 0 3 13 4 2 3 5 7 6 7 7 4 6 6 5 7 8 6 7 8 7 7 5 5 6 7 4 -3 26 9
12 -19 16 12 20 5 2 15 7 17 20 19 26 9 10 14 8 19 -1 2 -3 3 8 10 4 3 3 5 4 4 3 3 5 6 6 6 6 6 6 4 4 5 4 4 5 -3 15 -2 23
-3 7 17 22 5 3 16 17 -16 2 24 14 13 8 -5 17 19 13 10 13 6 3 5 6 14 5 -0 1 3 3 3 4 4 4 4 6 7 7 8 5 7 1 7 1 14 12 6 10 -8
23 -3 -22 26 -10 -9 6 15 34 5 -1 21 6 4 13 2 7 7 10 11 16 12 11 5 6 14 21 15 7 3 4 4 4 3 6 3 5 4 4 11 5 6 8 8 6 6 5 1 20
38 35 0 -24 9 20 0 14 18 23 17 -7 6 11 13 9 -3 5 8 7 14 3 17 16 7 13 14 7 19 16 11 12 14 13 10 8 8 4 4 4 5 27 15 7 14 3 8 5 2
Height
3129 3127 3125 3124 3128 3126 3126 3126 3123 3123 3125 3122 3120 3118 3117 3115 3114 3118 3113 3112 3110 3108 3112 3114 3114 3116 3118 3120 3122 3126 3133 3134 3140 3141 3142 3143 3145 3145 3147 3148 3148 3150 3151 3151 3152 3154 3157 3158 3159
3127 3127 3125 3124 3125 3125 3125 3124 3123 3122 3122 3121 3118 3116 3114 3112 3110 3111 3110 3109 3109 3110 3110 3108 3113 3115 3116 3120 3124 3126 3132 3135 3139 3141 3141 3142 3144 3145 3147 3148 3148 3149 3151 3153 3153 3156 3158 3158 3160
3126 3126 3125 3124 3125 3124 3123 3121 3120 3120 3120 3118 3116 3114 3111 3109 3107 3105 3104 3104 3103 3104 3106 3108 3111 3117 3119 3120 3122 3129 3132 3134 3137 3139 3140 3141 3142 3144 3146 3147 3149 3150 3151 3151 3153 3156 3161 3160 3162
3124 3125 3126 3124 3124 3123 3121 3118 3118 3117 3118 3117 3114 3112 3108 3106 3102 3101 3099 3097 3098 3101 3101 3107 3109 3114 3119 3121 3124 3128 3132 3134 3136 3138 3139 3140 3142 3143 3145 3146 3148 3150 3150 3150 3153 3158 3161 3162 3163
3124 3124 3123 3123 3122 3121 3119 3118 3117 3116 3116 3115 3112 3109 3106 3102 3098 3095 3096 3095 3095 3097 3099 3101 3106 3108 3109 3117 3115 3122 3130 3132 3134 3136 3138 3139 3141 3143 3145 3147 3147 3149 3151 3152 3154 3159 3162 3163 3163
3123 3124 3122 3122 3121 3120 3119 3116 3115 3114 3114 3113 3110 3106 3103 3098 3093 3090 3089 3088 3090 3092 3095 3095 3098 3099 3098 3104 3111 3115 3120 3129 3132 3133 3136 3138 3140 3144 3145 3144 3146 3149 3150 3152 3153 3158 3161 3162 3163
3122 3122 3121 3121 3120 3119 3117 3114 3114 3112 3111 3110 3108 3104 3101 3095 3090 3085 3083 3082 3085 3087 3088 3089 3090 3095 3096 3099 3103 3106 3111 3122 3125 3132 3133 3136 3140 3142 3145 3145 3146 3148 3149 3150 3151 3157 3160 3161 3162
3121 3121 3119 3119 3118 3117 3115 3114 3112 3110 3109 3107 3105 3102 3097 3093 3087 3083 3082 3081 3082 3083 3085 3084 3085 3087 3089 3091 3093 3099 3099 3114 3123 3128 3131 3135 3139 3139 3143 3146 3146 3147 3149 3149 3151 3155 3158 3161 3160
3119 3119 3117 3117 3116 3114 3114 3111 3110 3108 3107 3104 3102 3100 3094 3091 3086 3084 3079 3078 3078 3078 3078 3079 3079 3081 3083 3088 3085 3089 3101 3105 3120 3126 3130 3134 3136 3138 3141 3144 3146 3147 3147 3149 3150 3155 3158 3160 3162
3118 3116 3115 3115 3114 3111 3110 3108 3106 3105 3102 3101 3099 3096 3092 3087 3084 3081 3079 3078 3077 3077 3076 3072 3069 3060 3062 3077 3078 3087 3096 3099 3113 3123 3127 3131 3134 3136 3139 3141 3145 3148 3147 3149 3151 3154 3156 3160 3161
3116 3114 3114 3112 3112 3109 3107 3104 3103 3101 3099 3097 3095 3092 3089 3086 3082 3079 3075 3074 3073 3073 3072 3070 3061 3036 3033 3055 3071 3081 3095 3099 3111 3121 3124 3128 3132 3133 3136 3139 3141 3144 3145 3150 3152 3154 3158 3159 3160
3113 3112 3111 3110 3109 3107 3105 3103 3100 3097 3096 3094 3091 3089 3085 3082 3078 3074 3071 3069 3068 3069 3068 3066 3060 3045 3032 3048 3064 3077 3092 3099 3111 3117 3122 3126 3129 3132 3133 3136 3141 3145 3148 3151 3150 3154 3157 3159 3158
3106 3108 3107 3106 3106 3105 3102 3100 3097 3094 3093 3091 3088 3085 3081 3076 3071 3067 3065 3066 3066 3066 3065 3065 3064 3058 3057 3054 3064 3078 3090 3100 3109 3117 3121 3125 3127 3129 3134 3138 3142 3146 3149 3149 3151 3153 3155 3158 3157
3104 3103 3102 3102 3102 3101 3100 3096 3093 3090 3088 3087 3085 3082 3078 3073 3068 3061 3060 3062 3064 3065 3065 3066 3065 3065 3063 3065 3073 3082 3091 3101 3108 3115 3119 3122 3126 3130 3134 3138 3141 3146 3147 3149 3151 3151 3153 3154 3155
3102 3099 3098 3097 3098 3097 3097 3092 3089 3087 3086 3083 3082 3080 3076 3071 3067 3063 3060 3060 3063 3063 3065 3067 3068 3070 3071 3073 3079 3086 3094 3099 3105 3112 3116 3120 3126 3131 3134 3137 3140 3145 3146 3148 3149 3151 3152 3152 3153
3100 3097 3094 3094 3095 3096 3093 3088 3085 3085 3083 3082 3080 3078 3075 3071 3067 3063 3061 3060 3062 3062 3065 3066 3069 3072 3074 3078 3082 3086 3091 3097 3104 3109 3113 3118 3124 3129 3132 3134 3139 3143 3145 3147 3148 3150 3151 3150 3151
3096 3092 3092 3091 3093 3092 3090 3085 3083 3082 3080 3079 3078 3077 3075 3071 3067 3062 3060 3060 3060 3063 3065 3066 3070 3071 3076 3077 3081 3084 3092 3097 3101 3103 3107 3115 3122 3127 3130 3132 3135 3140 3142 3145 3146 3147 3149 3148 3149
3091 3090 3088 3089 3089 3088 3085 3083 3082 3080 3079 3078 3077 3076 3073 3070 3068 3063 3058 3058 3058 3059 3064 3064 3068 3072 3075 3079 3080 3084 3091 3095 3099 3103 3106 3112 3116 3121 3125 3128 3133 3138 3140 3143 3144 3145 3146 3146 3146
3090 3090 3088 3086 3086 3085 3080 3079 3078 3077 3076 3075 3076 3075 3073 3070 3070 3064 3058 3054 3056 3058 3060 3062 3067 3070 3073 3076 3080 3084 3087 3089 3095 3100 3104 3109 3112 3117 3122 3126 3130 3135 3138 3141 3142 3143 3144 3145 3144
3086 3087 3085 3085 3084 3082 3078 3075 3074 3073 3073 3073 3073 3073 3073 3070 3069 3067 3061 3057 3055 3059 3061 3062 3065 3068 3071 3072 3077 3081 3084 3088 3093 3096 3102 3106 3109 3114 3120 3124 3128 3132 3136 3138 3138 3139 3141 3142 3142
3080 3081 3082 3081 3080 3077 3076 3072 3070 3069 3069 3069 3068 3070 3071 3071 3069 3068 3065 3063 3062 3061 3062 3064 3065 3067 3069 3071 3075 3079 3082 3086 3089 3092 3098 3102 3106 3111 3117 3123 3124 3129 3132 3134 3135 3135 3136 3137 3137
3073 3076 3078 3078 3078 3076 3074 3068 3066 3065 3065 3065 3065 3067 3069 3070 3071 3069 3067 3066 3065 3067 3069 3071 3072 3071 3070 3071 3074 3077 3081 3083 3086 3091 3095 3099 3103 3109 3115 3118 3122 3124 3128 3130 3130 3130 3131 3130 3131
3068 3074 3075 3074 3072 3072 3071 3069 3061 3060 3059 3061 3062 3064 3065 3068 3069 3069 3069 3067 3069 3069 3070 3073 3076 3077 3077 3076 3078 3081 3084 3086 3090 3093 3095 3098 3102 3108 3112 3114 3117 3120 3123 3126 3126 3124 3125 3125 3127
3069 3070 3070 3068 3066 3065 3066 3066 3055 3055 3056 3056 3058 3060 3062 3065 3067 3070 3069 3068 3070 3071 3071 3073 3077 3080 3079 3079 3079 3082 3085 3089 3091 3094 3095 3096 3102 3106 3109 3110 3115 3118 3119 3120 3121 3119 3120 3120 3120
3064 3068 3067 3067 3062 3059 3062 3061 3053 3053 3052 3052 3054 3057 3059 3062 3063 3066 3068 3069 3070 3070 3071 3073 3075 3075 3077 3078 3080 3081 3085 3087 3089 3091 3093 3095 3100 3104 3106 3108 3111 3114 3115 3114 3114 3113 3113 3113 3113
3055 3061 3059 3061 3061 3055 3058 3053 3050 3049 3049 3049 3052 3055 3057 3060 3062 3064 3066 3068 3070 3071 3072 3072 3073 3075 3076 3077 3078 3081 3083 3086 3088 3090 3092 3095 3098 3101 3103 3105 3106 3108 3108 3107 3106 3105 3105 3106 3105
3047 3049 3056 3054 3052 3053 3051 3050 3048 3046 3045 3045 3047 3051 3054 3056 3059 3063 3065 3067 3069 3071 3072 3073 3074 3076 3077 3078 3080 3081 3083 3084 3086 3089 3091 3093 3094 3096 3097 3099 3099 3098 3098 3099 3098 3098 3099 3098 3097
3040 3049 3049 3047 3051 3052 3046 3046 3045 3044 3042 3044 3045 3048 3051 3053 3056 3059 3062 3063 3065 3067 3068 3068 3070 3071 3073 3074 3075 3077 3079 3081 3083 3084 3085 3087 3089 3090 3091 3090 3090 3089 3088 3088 3089 3090 3091 3090 3089
3035 3039 3040 3040 3039 3040 3046 3041 3041 3042 3041 3043 3044 3046 3049 3051 3053 3056 3057 3059 3060 3061 3061 3061 3063 3065 3066 3069 3070 3072 3074 3076 3078 3079 3081 3082 3083 3082 3083 3082 3081 3079 3077 3070 3078 3080 3081 3081 3080
3029 3029 3033 3034 3034 3034 3034 3033 3039 3038 3038 3040 3041 3044 3047 3049 3051 3052 3053 3054 3055 3056 3056 3055 3057 3058 3061 3064 3064 3066 3068 3069 3070 3072 3073 3073 3074 3075 3074 3072 3071 3063 3066 3071 3069 3072 3073 3072 3071